RH
13 13 13 14 14 14 13 12 12 13 13 14 12 12 13 13 13 11 8 8 7 8 9 9 8 7 8 8 5 5 5 5 7 13 18 26 28 28 29 33 36 37 37 35 36 36 38
11 11 11 11 12 13 13 14 13 12 13 13 14 13 12 12 13 13 11 9 8 7 7 8 8 8 7 8 6 4 5 5 5 12 18 23 26 29 28 30 33 33 35 39 41 33 34
12 12 11 11 11 11 12 12 13 14 13 12 13 14 14 13 12 12 13 11 9 8 7 7 7 8 8 6 7 5 5 6 5 8 18 23 30 28 28 29 32 33 40 38 39 37 40
14 13 12 12 11 11 11 11 12 12 13 13 13 12 12 12 12 11 11 12 11 9 8 7 8 8 8 6 6 5 6 6 5 7 13 23 25 26 28 28 32 39 40 44 41 38 42
15 14 13 12 12 11 11 11 10 11 11 12 13 13 12 12 11 10 10 9 11 11 11 10 10 10 8 9 6 6 5 7 6 7 15 19 21 23 26 27 33 39 38 46 44 39 46
17 15 14 13 12 12 11 11 11 10 10 11 12 13 13 12 11 10 10 9 11 11 13 15 15 15 9 8 10 8 7 9 8 7 16 17 19 22 25 27 35 36 39 43 45 44 46
19 18 16 15 13 13 12 11 11 10 10 10 10 11 12 12 12 11 11 8 11 13 13 12 11 13 9 7 10 8 9 9 9 8 12 16 17 20 23 25 25 31 38 38 44 45 46
23 21 19 17 16 14 13 12 11 11 10 10 9 9 11 12 12 12 11 11 12 13 11 11 11 9 9 8 9 10 11 11 10 11 9 13 15 20 25 27 26 26 34 40 46 45 50
27 25 23 21 19 17 15 13 12 12 11 10 10 9 9 11 11 12 12 11 11 12 14 8 9 11 12 10 7 10 12 11 11 12 10 13 15 21 25 27 26 26 27 35 39 47 49
30 28 26 24 22 20 18 16 14 12 11 11 10 9 9 9 10 11 11 11 12 13 19 12 10 13 14 11 10 7 13 12 12 14 13 13 16 21 22 25 26 27 22 32 36 40 45
34 31 29 27 25 22 20 18 16 14 13 11 10 10 9 9 10 9 11 11 11 17 25 11 11 13 15 14 8 8 14 14 13 13 14 14 15 18 21 20 23 24 25 30 36 38 41
37 34 32 29 28 27 23 21 20 17 15 13 12 11 10 9 9 9 11 13 14 21 26 13 13 13 15 16 11 12 15 16 13 13 15 14 14 18 18 20 22 22 30 34 35 38 45
40 38 36 33 31 29 27 24 23 22 19 16 14 12 12 10 10 9 10 13 20 25 15 13 15 15 15 18 13 13 18 20 17 16 15 14 13 17 18 20 22 22 29 33 34 45 45
49 48 44 42 39 36 31 27 26 24 22 19 16 14 13 12 11 11 10 14 25 18 16 14 15 15 17 20 16 13 21 24 19 14 13 13 14 15 18 19 23 21 26 32 34 39 40
57 56 53 49 46 43 38 31 28 28 25 22 19 17 15 14 14 13 12 16 18 20 18 17 17 16 18 20 23 19 23 24 23 15 11 13 12 12 17 18 20 21 25 27 33 34 34
63 61 58 56 53 48 43 38 32 31 29 26 23 21 18 19 20 17 16 14 14 15 17 15 18 19 18 25 27 24 23 22 23 23 17 11 11 9 11 16 19 20 21 27 33 34 35
67 64 61 58 54 51 49 45 38 34 32 29 26 25 22 22 23 22 19 16 13 13 14 14 17 21 21 24 26 27 22 23 21 21 25 22 15 11 10 11 14 19 21 25 28 32 33
71 67 64 61 58 56 53 51 47 39 36 32 30 29 28 26 26 26 22 17 15 14 13 14 16 19 20 20 25 26 24 21 25 28 28 25 23 16 13 11 11 13 17 20 26 28 33
71 66 66 62 58 56 55 53 51 46 40 38 36 34 30 31 33 30 28 25 21 19 17 17 17 17 21 22 24 27 28 23 28 34 36 33 28 22 15 16 14 14 16 19 24 27 32
64 63 63 59 56 54 53 52 51 49 43 39 42 40 40 43 36 34 33 28 28 26 26 26 24 25 25 27 23 25 30 31 34 41 42 38 31 24 17 12 15 15 17 22 21 29 28
77 76 78 70 68 69 66 61 59 50 43 39 44 46 53 53 51 47 39 34 33 32 29 27 26 27 28 31 27 23 28 30 37 45 47 32 27 23 15 13 15 16 15 19 20 20 22
86 85 84 83 81 77 75 75 74 71 59 52 53 55 54 51 49 50 44 36 38 37 33 30 31 30 33 33 30 25 28 34 35 45 47 42 27 23 18 16 15 18 18 19 19 23 22
63 63 65 71 76 76 72 74 72 70 64 55 51 56 57 46 48 47 41 43 39 41 34 32 34 34 39 35 37 33 30 36 43 42 50 50 39 29 23 21 18 20 18 19 22 22 22
64 67 70 71 70 70 72 75 73 68 66 62 56 49 59 53 44 42 41 42 37 42 41 36 39 39 42 42 38 34 33 34 44 52 50 57 47 44 29 28 31 17 19 20 22 25 26
65 68 71 74 79 81 76 77 79 78 77 72 64 55 54 62 55 44 41 40 36 37 38 40 45 47 45 49 43 39 38 38 39 52 57 65 56 49 39 33 26 28 28 27 25 30 32
69 69 72 75 80 82 82 82 82 74 83 82 79 65 56 53 48 53 51 45 42 38 35 41 45 45 54 58 55 48 46 46 53 47 56 64 63 56 47 34 37 31 32 30 30 37 36
83 85 84 82 85 84 85 86 85 86 82 80 85 71 69 64 49 54 53 56 47 42 39 46 50 58 59 63 60 55 49 42 60 49 67 79 73 67 58 44 40 39 37 35 35 37 42
87 86 88 85 85 86 89 90 90 90 85 80 84 76 67 64 49 52 53 52 51 47 45 50 60 70 74 71 71 63 57 56 53 46 56 68 78 84 71 53 44 44 39 35 38 42 42
86 88 86 86 86 95 95 92 95 95 88 82 86 80 72 69 51 55 46 40 44 46 47 53 67 71 80 80 74 74 69 63 62 69 56 68 74 76 75 64 56 51 49 46 43 39 40